星链-32003 (STARLINK-32003 )

导读 | 星芒AI

STARLINK-32003 是 SpaceX Starlink 卫星互联网项目中的一颗低轨卫星,属于第三代星链卫星群。该卫星部署在约 550 公里的轨道高度,旨在为全球用户提供高速、低延迟的宽带互联网服务。作为 Starlink 计划的一部分,它与其他数千颗卫星协同工作,提升网络覆盖与连接稳定性。该卫星采用先进推进系统和激光通信技术,支持更高效的星间通信,减少对地面基站的依赖。

基本信息
目录编号:
60097
目录名称:
STARLINK-32003
国际标识:
2024-117G
轨道中心:
EARTH
卫星名称:
星链-32003
卫星全名:
星链-32003 (STARLINK-32003 )
卫星状态:
在轨 (已飞行545 天)
发射日期:
2024-06-23 UTC
国别 :
美国 (US)
星等 :
--
轨道信息
数据来源 国际轨道数据
星历时间: 2025-12-19T22:00:23+0800
13小时前
查看轨道信息
半长轴: 6853.381km
偏心率: 0.0001026
轨道倾角: 53.160°
近地点辐角 77.774°
升交点赤经 49.083°
平近点角 282.338°
近地点: 474.54km
远地点: 475.948km
周期: 94.106分钟
每日圈数: 15.301906
详细信息
固有亮度:
5
最大亮度:
1.5
卫星平台:
Starlink v2.0 mini
覆盖范围:
全球
运营商:
太空探索技术公司
运营商所在国:
美国
制造商(研发单位):
太空探索技术公司
制造商所在国:
美国
使用方式:
暂无
卫星简介
星链(Starlink)计划是由太空探索技术公司(SpaceX)提出的一个巨型低轨卫星互联网星座项目,计划在2019年至2024年间在太空搭建由约1.2万颗卫星组成的“星链”网络,其中1584颗将部署在地球上空550千米处的近地轨道,并从2020年开始工作。该卫星仍在工作。
2D轨道图
3D轨道图
轨道高度分析图
轨道倾角分析图
轨道综合分析图
查看轨道综合分析图